Theta_e
308 308 308 308 309 309 309 309 309 309 309 310 312 313 315 316 318 316 317 315 314 310 312 312 313 311 310 310 307 309 309 306 306 303 302 302 300 302 300 302 302 301 301 300 297 296 295 310 309 307 313 317 318 316
308 308 308 307 307 308 308 308 308 308 308 309 312 312 316 315 318 316 314 317 315 313 314 314 316 318 317 316 313 311 309 307 310 305 304 304 302 302 300 298 303 300 305 303 304 305 311 313 312 313 314 313 313 312
307 307 307 307 307 307 307 307 307 306 306 307 309 313 314 315 317 317 313 314 315 312 312 310 312 316 317 317 319 310 311 312 307 309 307 305 303 304 300 301 302 305 306 305 305 308 308 311 314 313 313 312 313 314
308 307 307 306 306 306 305 306 306 306 306 307 308 309 311 312 313 315 312 313 313 311 306 310 315 314 318 317 317 317 312 308 308 310 307 305 303 306 304 304 301 306 307 306 306 309 309 310 312 313 313 314 313 314
308 308 307 307 306 305 305 305 305 306 306 306 308 309 309 309 311 313 315 315 315 311 306 308 313 315 315 315 315 315 314 312 312 309 306 304 306 305 305 303 301 307 307 304 303 311 310 311 312 313 312 313 314 314
308 308 308 308 307 307 306 307 307 307 307 306 307 307 307 308 310 309 306 310 313 310 305 303 313 312 314 315 314 314 314 312 312 310 308 308 308 308 304 300 306 309 311 312 309 312 310 311 312 312 311 312 313 313
308 307 308 308 308 308 308 307 308 307 307 307 307 307 307 308 308 305 305 307 309 308 305 303 305 313 314 314 313 312 312 311 311 310 307 309 308 306 304 301 310 313 313 313 312 311 308 310 309 311 311 312 313 313
308 308 308 308 308 308 307 307 307 307 307 307 307 308 308 308 308 305 312 311 310 307 308 303 304 308 313 310 308 309 307 307 307 309 307 307 305 305 301 308 312 312 310 310 310 310 310 311 313 313 313 313 312 312
307 308 308 308 308 308 308 307 307 307 307 307 307 307 308 306 302 305 311 311 310 308 304 303 300 301 312 309 311 310 309 304 307 305 305 306 304 301 306 308 308 308 308 309 310 311 310 309 310 310 310 311 310 311
307 308 308 308 308 308 308 307 307 307 307 307 305 302 299 307 312 311 306 305 302 304 303 301 305 302 309 309 308 309 310 308 303 308 306 303 304 307 308 309 311 311 310 309 307 307 308 308 308 309 309 311 311 311
307 307 307 307 307 307 307 307 307 307 305 303 300 300 308 312 306 303 298 296 299 297 302 303 304 302 309 304 305 309 306 307 302 306 303 303 300 306 309 309 311 311 310 310 310 310 310 310 309 309 310 310 311 311
306 307 306 306 306 306 307 306 307 305 302 301 300 303 305 302 300 295 294 296 295 294 300 299 301 303 306 311 306 307 303 305 298 305 302 299 304 310 309 309 312 313 312 310 311 310 310 310 311 311 311 311 312 312
306 306 306 306 306 306 306 306 306 305 305 303 300 297 297 295 290 290 288 291 292 298 300 300 299 303 304 307 305 305 301 301 305 299 298 302 308 309 311 312 311 312 311 310 310 311 311 312 313 313 312 314 314 313
305 305 306 305 306 306 306 306 306 306 302 295 293 285 290 290 291 294 294 296 300 302 302 303 302 302 304 302 305 301 306 302 297 294 297 305 310 311 312 311 310 310 310 309 310 311 311 311 312 312 313 314 312 311
305 305 305 305 306 305 306 305 305 304 297 291 292 287 289 295 297 298 299 298 301 302 301 301 303 305 302 302 303 301 298 296 297 298 302 308 312 312 311 312 311 310 310 309 311 310 311 312 311 311 312 313 313 312
305 304 303 305 306 306 304 304 303 301 296 292 290 289 296 295 296 297 298 298 301 301 303 303 302 299 300 302 298 297 296 295 300 304 308 310 311 312 313 313 312 311 310 310 311 312 312 313 312 311 314 314 312 311
304 300 304 306 306 305 304 300 298 293 290 289 288 295 294 294 295 298 300 300 304 302 300 300 298 298 304 298 297 300 298 302 305 307 309 312 313 314 315 313 312 311 311 311 312 313 314 315 316 313 313 316 313 311
300 303 304 305 304 303 299 298 293 290 287 290 289 293 296 297 295 295 300 300 300 301 299 295 298 297 297 295 298 303 305 306 308 310 311 312 313 314 312 311 311 311 311 313 313 314 315 316 314 313 317 317 316 311
302 304 305 305 302 298 293 293 294 288 288 290 293 295 297 298 300 301 302 301 302 302 301 296 296 298 300 304 304 304 305 307 307 309 310 312 312 311 312 312 312 312 314 313 314 314 317 316 317 319 315 315 312 312
304 304 305 304 303 295 291 291 296 290 288 293 296 294 295 294 296 297 298 299 299 299 294 292 292 301 304 308 309 309 309 309 309 307 307 308 310 312 312 311 312 313 313 315 316 309 316 320 325 323 322 319 315 312
302 302 304 301 298 296 293 292 291 292 292 291 294 293 293 296 294 294 294 298 294 292 292 295 297 301 306 308 309 309 308 308 309 309 307 306 309 310 311 312 314 313 313 314 314 317 318 322 322 324 324 321 321 319
300 303 299 299 294 294 292 296 294 293 291 292 292 293 291 291 294 295 297 293 292 293 295 296 299 301 302 304 305 309 311 313 312 309 303 305 307 308 311 313 313 313 313 313 315 316 318 322 323 326 325 324 321 323
302 300 297 295 290 288 289 297 291 293 289 291 295 292 292 292 294 297 292 294 296 300 301 300 301 304 303 306 309 310 311 310 307 307 308 310 310 311 313 313 314 313 314 314 319 319 323 313 321 323 325 325 326 325
301 295 292 290 290 288 292 289 293 291 292 291 291 289 291 293 295 294 292 296 299 301 301 302 303 301 303 306 305 305 308 310 308 309 310 310 311 313 314 314 315 316 316 317 318 323 326 325 312 321 321 322 324 324
288 289 290 286 292 289 288 289 290 290 289 291 290 291 293 296 294 294 293 299 302 302 302 303 303 304 303 305 308 308 311 310 308 308 313 314 314 313 314 315 317 319 320 320 321 324 324 324 322 320 319 318 318 317
285 290 287 289 290 288 290 288 289 289 290 290 292 295 295 294 291 292 298 300 306 309 306 303 303 304 304 306 305 307 309 313 313 312 315 314 314 314 316 320 320 321 323 323 323 323 321 320 318 317 316 313 304 316
286 288 292 295 294 294 292 293 294 292 290 291 294 294 295 291 292 298 304 308 309 311 312 311 310 309 311 311 311 313 315 315 315 315 316 318 318 318 319 318 319 322 325 325 325 323 320 318 317 316 315 316 316 317
291 293 289 293 292 294 290 292 291 291 293 296 297 294 294 294 296 302 308 311 310 310 311 313 314 314 313 312 313 313 313 315 315 315 317 317 318 318 319 321 323 306 325 328 328 326 322 318 317 317 316 315 315 318
291 295 295 291 292 293 292 292 292 295 299 299 297 297 300 306 308 308 309 310 310 309 307 309 311 312 312 313 313 313 314 315 314 314 316 319 322 323 324 326 327 327 329 327 304 315 325 321 320 318 317 316 316 317
291 296 292 292 291 290 295 298 297 299 301 301 301 301 301 303 306 309 308 308 306 306 308 310 313 314 313 316 316 316 316 316 317 320 320 323 326 328 328 328 327 328 328 329 326 319 303 316 311 319 316 315 314 314
298 294 292 292 293 296 298 300 301 301 301 300 301 299 299 302 306 309 309 309 309 309 310 310 313 313 314 319 319 321 319 319 320 323 326 328 327 327 327 327 329 330 331 327 322 322 321 321 321 320 318 316 316 312
296 294 294 293 295 301 303 300 301 300 300 300 300 302 302 301 300 307 313 315 314 312 307 311 316 318 321 324 327 329 305 328 327 329 329 328 328 329 329 329 330 330 329 325 323 323 323 322 322 321 318 317 317 317
297 297 297 296 297 298 302 301 300 299 301 300 301 301 301 303 301 310 317 320 320 321 320 319 322 328 327 325 326 327 316 332 324 310 309 308 311 317 329 330 330 329 327 323 322 323 322 322 321 320 320 319 319 319
Wind_Speed
13 14 14 13 13 13 13 13 11 12 13 13 13 12 11 10 7 4 2 2 3 2 7 5 3 4 2 3 3 2 3 3 1 3 3 2 3 1 3 2 2 3 4 3 3 5 6 3 2 4 4 3 4 2
14 13 13 13 14 13 13 12 13 13 13 13 14 9 10 8 6 2 2 1 2 4 5 3 8 11 11 8 1 2 4 2 1 2 2 2 3 3 2 3 3 4 3 2 5 2 2 4 5 2 2 3 3 4
12 12 12 11 12 12 11 10 11 12 12 12 12 10 9 10 8 4 2 2 2 3 6 3 6 2 6 15 14 5 3 4 4 1 2 1 4 3 3 5 3 2 3 4 3 2 6 8 8 6 6 9 7 7
13 13 12 10 9 10 10 9 9 10 11 11 11 10 9 10 10 10 2 2 1 0 4 4 3 6 3 7 14 16 1 2 3 2 1 2 3 4 3 4 4 2 3 5 8 14 7 10 10 11 16 13 11 12
14 14 13 13 11 10 10 9 9 9 9 10 10 8 6 8 9 7 4 3 2 3 4 6 12 7 5 8 14 11 13 8 2 2 3 4 2 4 2 2 6 5 7 5 7 12 8 10 10 13 11 15 16 14
13 13 13 13 12 12 11 12 11 11 10 7 8 8 8 9 6 4 3 2 3 2 3 5 4 4 1 5 8 11 9 6 4 3 4 4 2 5 5 5 4 9 8 12 12 10 8 14 14 15 14 17 17 17
15 15 14 15 15 14 13 12 11 10 9 8 8 8 8 9 3 4 2 2 2 1 3 4 5 3 1 4 3 3 6 4 4 3 5 5 4 6 4 11 10 14 17 13 12 9 9 10 7 13 13 14 14 14
15 16 15 14 13 12 12 11 9 8 8 8 7 7 5 7 6 5 3 10 5 3 2 4 4 3 1 3 4 2 4 3 5 3 2 4 3 3 7 7 12 9 8 9 5 3 6 8 7 7 9 10 12 12
16 15 15 14 13 12 11 11 9 8 8 8 7 7 2 3 3 1 7 7 2 2 3 4 3 2 2 2 1 3 2 4 2 4 4 6 5 7 4 4 2 3 3 7 5 3 4 7 9 11 12 14 13 13
16 13 14 13 13 13 11 9 8 9 6 7 3 3 2 1 8 7 2 3 2 3 3 4 1 3 3 1 2 2 1 1 3 2 3 4 7 1 2 1 5 6 5 5 7 11 14 15 15 16 17 16 16 17
15 13 10 11 11 12 11 10 8 6 3 3 3 2 2 4 2 2 3 4 4 4 5 6 9 5 1 3 1 1 1 1 3 3 4 3 4 4 6 6 5 5 3 4 5 8 12 14 16 17 18 18 18 19
13 13 10 10 10 9 10 10 7 3 2 1 2 3 2 2 3 5 5 4 5 6 5 5 4 6 3 1 3 3 3 2 5 3 3 4 2 5 7 7 6 6 7 8 10 14 15 15 15 16 17 18 19 19
13 12 10 9 8 9 9 9 9 6 0 1 3 3 4 4 8 7 9 5 5 4 5 5 5 5 3 5 5 4 6 6 3 4 4 0 5 6 6 5 6 6 7 10 13 14 14 15 15 15 17 17 19 18
12 10 11 11 9 7 7 9 8 5 3 3 4 3 5 6 6 5 5 2 3 3 5 5 3 4 4 6 4 6 5 3 4 4 4 4 7 6 5 4 6 10 10 11 14 15 15 15 16 16 15 14 14 15
12 10 11 11 11 8 9 8 5 2 1 3 3 5 7 6 3 2 4 2 2 2 2 1 2 3 3 4 4 2 5 5 4 2 2 5 7 5 4 5 8 10 10 12 14 15 15 16 16 14 14 14 12 13
7 5 6 11 13 12 14 8 2 1 2 3 4 4 4 3 4 4 3 5 2 1 1 2 3 3 5 3 5 7 5 4 3 2 3 5 4 4 5 7 8 9 11 12 14 14 15 15 15 14 17 14 10 10
7 2 5 11 11 15 15 3 2 5 3 3 4 5 4 3 4 3 2 4 5 3 4 2 5 1 4 3 3 3 3 3 5 4 3 3 3 5 7 7 10 10 11 12 14 13 14 16 15 12 12 12 8 8
1 3 5 7 8 6 2 2 2 3 5 5 5 6 7 6 6 7 2 2 4 3 4 3 3 4 4 6 4 4 2 3 2 3 3 2 4 6 7 9 10 10 11 13 11 12 14 16 14 10 12 11 9 6
5 6 10 15 5 3 3 4 3 3 6 5 6 7 4 4 4 2 4 5 2 5 5 2 5 5 3 2 1 3 4 3 3 2 1 3 5 7 8 7 8 9 10 12 10 9 9 13 11 8 6 6 5 5
8 8 12 12 4 2 3 3 2 4 4 3 4 5 5 5 4 6 5 4 2 2 6 5 6 3 2 1 0 1 1 2 1 2 4 4 4 6 6 7 7 8 9 8 7 6 6 6 8 9 8 7 3 3
5 4 9 4 1 2 2 3 4 3 3 3 3 3 5 5 8 8 9 7 7 5 6 8 7 8 7 5 4 3 4 5 5 3 5 7 8 7 7 6 5 6 6 5 6 8 6 7 7 7 8 9 10 9
1 7 2 2 1 2 3 3 2 2 3 3 3 4 4 4 5 6 6 6 6 10 10 10 10 10 9 10 9 10 11 7 5 5 6 4 6 8 7 5 5 6 4 3 5 6 6 5 5 6 5 5 7 8
5 1 2 3 3 2 4 2 4 4 4 4 3 3 4 4 2 5 4 5 6 9 12 13 16 14 13 12 11 10 8 8 7 8 8 6 7 6 6 6 5 5 4 4 4 5 4 5 4 3 2 3 4 5
1 2 3 4 4 2 2 3 3 3 3 3 2 4 3 2 5 4 5 4 6 4 9 14 10 10 10 8 8 10 8 5 7 7 6 6 6 5 5 5 4 4 3 5 4 4 2 3 3 2 3 4 3 4
2 3 2 4 2 3 4 3 4 4 4 4 4 4 3 4 3 3 3 3 3 4 7 8 10 10 10 8 7 8 7 7 7 7 5 6 5 4 4 4 4 4 2 3 3 2 2 3 3 3 4 5 6 7
4 4 4 3 3 4 3 4 3 3 2 4 4 3 2 2 3 4 1 3 3 2 3 7 8 7 7 8 7 6 5 5 5 6 4 5 4 3 2 2 1 2 3 3 2 2 3 4 5 7 9 9 6 10
4 4 5 3 3 3 4 4 4 4 4 4 3 3 3 4 3 2 3 2 2 3 3 0 5 5 3 3 4 5 4 5 6 1 3 1 3 5 4 2 1 2 2 3 2 3 5 6 7 6 7 6 7 7
5 3 5 4 3 3 4 4 3 5 5 3 2 4 3 2 1 3 3 1 5 6 4 2 3 3 3 3 3 3 4 3 2 2 3 5 5 5 5 4 4 3 4 4 2 4 5 7 6 6 8 8 7 6
4 2 2 6 6 5 6 6 5 4 3 3 3 3 3 1 2 3 5 7 7 6 6 4 5 4 5 4 4 4 4 5 7 9 8 5 5 4 6 5 5 5 5 5 2 5 5 5 6 7 8 7 6 6
4 6 4 5 5 7 6 8 6 5 4 4 5 7 8 10 9 7 8 8 8 8 7 6 4 4 3 4 4 5 5 5 5 4 5 6 4 8 9 9 9 7 5 4 5 6 5 7 6 6 6 5 4 4
2 4 4 5 5 6 7 8 8 8 9 8 8 10 10 6 7 7 6 5 5 4 4 4 4 3 4 4 3 4 5 6 9 8 4 3 9 10 10 9 8 6 5 5 5 7 8 6 5 5 6 7 7 6
5 7 4 5 5 4 4 5 4 4 4 4 3 5 2 1 3 3 2 2 2 3 3 4 5 5 6 3 2 0 1 7 7 7 10 9 9 9 9 7 6 5 5 5 5 5 7 6 4 3 3 3 3 3
4 6 6 4 4 4 2 1 2 3 3 3 4 5 5 4 4 2 1 2 2 1 3 4 3 2 4 5 3 3 5 5 8 7 8 6 9 9 7 6 5 5 6 6 5 6 7 6 5 3 3 3 5 7
Wind_Direction
297 296 300 305 309 311 312 320 323 321 324 327 319 316 326 332 352 3 317 350 326 275 275 219 235 224 201 224 232 66 252 178 194 210 228 175 232 129 257 267 262 252 202 195 177 225 256 37 197 251 4 356 329 347
297 297 297 301 303 304 305 310 310 311 311 314 325 305 324 323 340 359 266 42 330 243 291 270 252 249 246 240 247 197 325 274 221 135 199 161 205 210 234 254 168 236 258 346 238 310 317 296 289 313 260 300 302 296
285 287 286 289 293 295 302 307 309 311 310 310 319 330 333 334 357 322 273 310 234 280 269 273 240 207 219 234 232 234 219 244 204 280 144 110 239 177 229 238 281 190 176 251 282 229 249 275 263 278 308 286 278 283
284 288 288 289 292 298 300 300 306 310 314 311 310 314 322 324 344 338 227 167 271 228 270 277 325 277 212 172 187 213 283 129 85 233 179 172 232 204 222 307 238 284 190 244 259 281 274 271 280 292 300 274 280 282
268 272 276 280 282 283 281 286 291 294 303 311 314 302 313 323 325 307 263 211 223 271 290 292 301 267 245 216 204 206 209 212 213 198 201 214 160 189 182 277 250 194 236 228 269 279 268 278 288 292 281 286 291 272
269 267 264 265 267 272 277 285 287 287 281 297 309 313 314 296 324 287 272 156 190 202 255 281 318 258 159 183 175 184 196 197 213 216 217 211 179 212 221 241 244 220 241 246 259 279 286 274 289 287 285 286 291 290
260 261 261 264 264 262 266 273 281 283 292 289 276 280 289 289 245 228 311 32 133 171 239 264 259 223 204 178 161 160 179 189 206 215 226 243 192 190 240 249 271 275 267 286 266 285 275 277 302 319 310 300 299 286
269 261 260 261 261 261 268 266 274 287 291 300 300 287 297 307 271 271 247 212 161 239 246 259 261 267 166 167 168 166 158 175 190 235 186 213 133 207 249 239 251 286 309 289 53 346 297 303 318 336 334 338 323 303
266 263 257 255 255 249 254 263 266 283 287 296 306 304 296 192 221 211 114 126 213 258 237 213 244 208 359 89 147 153 195 191 115 230 215 179 185 222 219 252 313 347 327 318 7 19 351 340 329 320 316 311 307 304
267 257 251 247 251 250 238 245 259 270 271 294 267 213 205 218 120 135 149 180 222 203 227 245 297 266 311 52 110 220 172 209 229 195 134 219 248 84 197 238 152 133 103 30 357 349 337 321 316 313 308 302 295 292
262 261 261 258 262 260 245 228 241 255 269 224 218 232 62 130 192 206 196 212 191 217 201 216 215 216 207 249 77 18 353 186 240 154 232 220 244 174 160 160 184 211 256 308 301 301 300 297 297 298 297 296 294 290
256 253 245 244 245 248 231 222 204 190 234 277 306 284 253 223 189 212 199 192 220 219 192 200 203 203 211 255 227 186 238 193 243 126 225 245 150 149 173 203 228 249 272 297 310 305 301 296 296 295 292 292 290 288
252 255 235 230 219 224 208 211 207 196 270 293 207 223 197 201 225 210 185 197 209 211 192 177 168 159 162 215 195 195 209 217 119 207 224 134 126 172 203 233 268 278 286 294 302 308 303 297 294 292 293 295 295 295
263 256 228 219 218 212 206 200 217 164 201 233 196 258 216 192 220 204 199 210 203 239 178 181 148 190 171 174 192 204 186 175 220 224 215 146 173 185 211 249 275 296 305 305 308 315 305 299 294 294 298 291 293 288
254 234 221 211 192 176 179 165 160 142 179 235 229 226 222 251 258 264 233 243 212 262 252 196 228 197 172 203 202 181 176 217 221 215 136 151 174 196 243 280 292 302 312 306 312 312 306 302 293 294 295 293 288 299
244 237 209 203 184 165 140 124 116 73 223 228 236 264 245 233 239 210 241 284 238 211 207 234 213 190 202 184 187 198 182 197 139 154 128 146 183 222 259 274 290 298 297 301 306 306 299 300 297 292 300 302 290 293
191 225 206 195 186 166 147 117 142 193 242 249 234 232 262 312 301 2 30 20 326 260 221 228 214 187 135 133 226 188 202 132 140 136 141 190 223 261 281 290 290 299 301 306 308 305 303 303 297 290 292 308 299 290
93 179 214 164 126 108 53 72 173 227 237 234 244 238 211 199 226 260 196 288 319 12 332 27 305 232 198 178 180 180 152 117 145 130 141 235 267 282 286 287 295 300 301 306 305 306 305 308 303 299 305 303 294 289
165 167 143 134 121 111 167 178 214 251 237 250 249 251 259 249 237 244 164 151 220 313 302 359 267 229 191 217 214 140 128 163 156 128 273 268 267 272 284 299 293 294 308 304 314 313 314 305 313 332 294 308 313 330
144 155 150 141 98 137 186 203 211 248 249 246 248 248 248 252 256 209 191 172 138 199 230 215 223 280 253 81 185 102 94 139 183 276 298 317 322 298 310 310 304 312 302 311 311 299 315 323 346 353 349 343 318 326
105 154 143 113 135 223 241 215 217 238 277 268 297 288 265 246 236 227 223 195 187 213 236 226 227 235 245 266 294 295 244 198 222 246 297 311 321 317 306 307 297 296 298 316 324 328 331 352 336 353 13 37 44 50
91 133 98 84 308 180 253 232 250 178 239 245 236 200 244 238 220 201 155 180 214 213 215 227 232 242 251 253 260 248 255 250 246 259 259 267 285 297 298 300 296 299 294 312 305 308 311 330 343 354 35 42 57 58
125 142 149 162 198 234 256 210 241 211 245 249 220 237 221 229 208 146 211 213 222 206 209 213 221 222 233 247 242 252 246 243 260 272 277 275 273 270 262 268 275 268 300 301 314 298 317 321 340 20 47 70 80 77
50 204 216 199 205 249 238 249 231 243 247 249 258 258 235 218 152 227 248 235 229 216 204 211 205 213 220 242 240 245 245 233 257 267 257 258 257 241 245 269 252 246 254 283 293 291 315 343 6 47 92 123 105 79
244 227 216 232 210 231 237 226 218 242 240 219 243 247 230 189 229 239 248 265 243 228 208 194 200 209 221 231 242 250 234 219 236 249 244 219 239 254 248 237 249 252 208 236 250 257 14 357 59 99 105 99 101 90
242 209 209 218 192 224 225 270 253 231 265 270 246 262 253 228 242 270 239 316 289 38 169 184 184 184 213 223 239 242 246 199 201 225 234 220 228 222 172 150 99 86 189 234 214 56 40 65 95 104 101 102 97 91
248 239 203 221 266 243 248 239 263 282 265 245 260 265 233 239 212 180 286 264 357 10 349 239 169 182 185 161 197 217 200 185 204 245 53 92 188 202 223 190 106 12 248 205 189 61 77 111 106 96 94 83 73 93
240 250 234 179 209 238 273 292 249 227 236 229 261 254 268 263 8 301 253 20 358 355 335 286 264 240 219 210 214 198 194 198 220 276 259 239 230 230 217 233 251 271 241 196 131 102 99 112 111 106 97 87 91 98
239 235 237 236 219 223 221 221 238 231 224 218 248 263 267 286 171 237 286 302 311 303 305 285 248 228 244 246 230 209 193 182 186 188 196 206 178 165 177 179 174 184 184 161 107 38 92 119 104 104 100 90 90 94
239 186 226 246 213 230 222 205 230 230 229 251 276 280 282 274 270 268 269 272 274 269 264 260 247 210 226 210 193 185 188 192 212 209 193 192 147 134 149 151 156 162 167 163 135 117 124 137 129 121 126 120 123 125
210 165 223 240 259 254 238 241 252 256 259 259 253 254 260 288 291 278 263 266 267 251 213 200 203 195 206 209 187 178 168 190 206 218 231 156 137 140 146 148 149 152 156 155 148 149 151 157 151 151 157 164 166 192
200 208 214 235 249 256 242 220 232 225 222 222 231 206 229 234 268 281 233 179 164 164 183 179 176 184 199 210 218 253 198 142 162 173 162 156 144 146 148 149 152 156 155 146 146 144 162 152 156 139 127 169 190 201
221 215 222 261 259 258 208 249 272 283 230 226 226 191 199 205 249 279 310 236 252 207 176 184 188 171 165 181 198 130 126 143 138 140 150 162 154 149 152 151 156 168 170 165 152 140 145 138 117 105 110 103 100 117